Muskegon, MI

2:23 PM EST on December 07, 2016 (GMT -0500)
Muskegon County

Weather History for KMKG - February, 2013

Change the Weather History Date:

Wednesday, February 20, 2013

  Actual Average Record
Temperature  
Mean Temperature 21 °F 28 °F  
Max Temperature 24 °F 34 °F 56 °F (1983)
Min Temperature 17 °F 22 °F -13 °F (1904)
Degree Days  
Heating Degree Days 44 37  
Month to date heating degree days 830 773  
Since 1 July heating degree days 4143 4445  
Cooling Degree Days 0 0  
Month to date cooling degree days 0 0  
Year to date cooling degree days 0 0  
Moisture  
Dew Point 11 °F    
Average Humidity 70    
Maximum Humidity 77    
Minimum Humidity 62    
Precipitation  
Precipitation 0.04 in 0.07 in 1.13 in (2002)
Month to date precipitation 2.71 1.25  
Year to date precipitation 8.19 3.28  
Snow  
Snow 1.30 in 0.70 in 8.60 in (2011)
Month to date snowfall 39.1 14.8  
Since 1 July snowfall 78.7 77.9  
Snow Depth 11.00 in    
Sea Level Pressure  
Sea Level Pressure 30.16 in    
Wind  
Wind Speed 15 mph (NW)    
Max Wind Speed 21 mph    
Max Gust Speed 31 mph    
Visibility 4 miles    
Events Snow    
T = Trace of Precipitation, MM = Missing Value Source: NWS Daily Summary

Daily Weather History Graph

Daily Weather History Graph

Search for Another Location

Airport or City:

Trip Planner

Search our weather history database for the weather conditions in past years. The results will help you decide how hot, cold, wet, or windy it might be!

Date:

Astronomy

Feb. 20, 2013 Rise Set
Actual Time 7:34 AM EST 6:22 PM EST
Civil Twilight 7:06 AM EST 6:51 PM EST
Nautical Twilight 6:32 AM EST 7:25 PM EST
Astronomical Twilight 6:00 AM EST 7:57 PM EST
Moon 1:39 PM EST (2/20) 3:59 AM EST (2/20)
Length of Visible Light 11h 45m
Length of Day
10h 47m
Waxing Gibbous, 76% of the Moon is Illuminated
Feb 20
Waxing Gibbous
Feb 25
Full
Mar 4
Last Quarter
Mar 11
New
Mar 19
First Quarter

Hourly Weather History & Observations

Time (EST) Temp. Windchill Dew Point Humidity Pressure Visibility Wind Dir Wind Speed Gust Speed Precip Events Conditions
12:01 AM 17.6 °F 1.3 °F 10.4 °F 73% 29.99 in 1.8 mi NW 19.6 mph 26.5 mph 0.00 in Snow Light Snow
12:13 AM 17.6 °F 3.7 °F 8.6 °F 68% 30.00 in 3.0 mi NW 13.8 mph 26.5 mph 0.00 in Snow Light Snow
12:23 AM 17.6 °F 3.7 °F 10.4 °F 73% 30.00 in 2.5 mi WNW 13.8 mph 21.9 mph 0.00 in Snow Light Snow
12:48 AM 17.6 °F 2.7 °F 8.6 °F 68% 30.01 in 1.8 mi NW 16.1 mph 25.3 mph 0.00 in Snow Light Snow
12:52 AM 17.6 °F 1.7 °F 8.6 °F 68% 30.01 in 3.0 mi NW 18.4 mph 25.3 mph 0.00 in Snow Light Snow
12:55 AM 17.6 °F 3.7 °F 8.6 °F 68% 30.01 in 3.0 mi NW 13.8 mph 25.3 mph N/A Snow Light Snow
1:00 AM 17.6 °F 3.7 °F 10.4 °F 73% 30.01 in 1.8 mi NW 13.8 mph 25.3 mph 0.00 in Snow Light Snow
1:27 AM 17.6 °F 3.2 °F 10.4 °F 73% 30.02 in 3.0 mi NW 15.0 mph 19.6 mph 0.00 in Snow Light Snow
1:43 AM 17.6 °F 4.3 °F 8.6 °F 68% 30.02 in 2.5 mi NW 12.7 mph 21.9 mph 0.00 in Snow Light Snow
1:51 AM 17.6 °F 3.7 °F 10.4 °F 73% 30.02 in 4.0 mi WNW 13.8 mph 19.6 mph 0.00 in Snow Light Snow
1:55 AM 17.1 °F 4.3 °F 9.0 °F 71% 30.07 in 3.0 mi NW 11.5 mph 19.6 mph 0.00 in Snow Light Snow
1:58 AM 17.6 °F 3.2 °F 8.6 °F 68% 30.03 in 2.5 mi NW 15.0 mph 20.7 mph 0.00 in Snow Light Snow
2:21 AM 17.6 °F 5.0 °F 8.6 °F 68% 30.04 in 3.0 mi WNW 11.5 mph 23.0 mph 0.00 in Snow Light Snow
2:38 AM 17.6 °F 5.7 °F 10.4 °F 73% 30.04 in 3.0 mi NW 10.4 mph 20.7 mph 0.00 in Snow Light Snow
2:52 AM 17.6 °F 4.3 °F 10.4 °F 73% 30.05 in 2.5 mi NW 12.7 mph 24.2 mph 0.00 in Snow Light Snow
2:55 AM 17.1 °F 1.5 °F 10.0 °F 74% 30.08 in 2.0 mi NW 17.3 mph 24.2 mph 0.00 in Snow Light Snow
3:22 AM 17.6 °F 3.7 °F 10.4 °F 73% 30.05 in 3.0 mi NW 13.8 mph 20.7 mph 0.00 in Snow Light Snow
3:31 AM 17.6 °F 3.2 °F 10.4 °F 73% 30.05 in 6.0 mi NNW 15.0 mph 23.0 mph 0.00 in Snow Light Snow
3:53 AM 17.6 °F 3.7 °F 10.4 °F 73% 30.06 in 5.0 mi NW 13.8 mph 19.6 mph 0.00 in Snow Light Snow
3:55 AM 18.0 °F 4.2 °F 10.0 °F 71% 30.09 in 5.0 mi NW 13.8 mph 19.6 mph 0.00 in Snow Light Snow
4:23 AM 17.6 °F 3.2 °F 10.4 °F 73% 30.07 in 2.0 mi NW 15.0 mph - 0.00 in Snow Light Snow
4:31 AM 17.6 °F 5.0 °F 10.4 °F 73% 30.08 in 5.0 mi NW 11.5 mph - 0.00 in Snow Light Snow
4:55 AM 18.0 °F 7.7 °F 10.0 °F 71% 30.13 in 6.0 mi NNW 8.1 mph 18.4 mph 0.00 in Snow Light Snow
5:10 AM 17.6 °F 5.7 °F 10.4 °F 73% 30.09 in 2.5 mi NNW 10.4 mph - 0.00 in Snow Light Snow
5:23 AM 17.6 °F 3.7 °F 10.4 °F 73% 30.10 in 3.0 mi NNW 13.8 mph - N/A Snow Light Snow
5:45 AM 17.6 °F 4.3 °F 10.4 °F 73% 30.11 in 5.0 mi NNW 12.7 mph - 0.00 in Snow Light Snow
5:53 AM 17.6 °F 3.2 °F 10.4 °F 73% 30.11 in 2.5 mi NNW 15.0 mph - 0.00 in Snow Light Snow
5:55 AM 18.0 °F 4.8 °F 10.0 °F 71% 30.15 in 2.0 mi NNW 12.7 mph - 0.00 in Snow Light Snow
6:04 AM 17.6 °F 5.0 °F 10.4 °F 73% 30.12 in 3.0 mi NNW 11.5 mph - 0.00 in Snow Light Snow
6:30 AM 17.6 °F 4.3 °F 10.4 °F 73% 30.13 in 5.0 mi NNW 12.7 mph - 0.00 in Snow Light Snow
6:55 AM 18.0 °F 4.2 °F 10.0 °F 71% 30.17 in 4.0 mi NNW 13.8 mph - 0.00 in Snow Light Snow
7:19 AM 17.6 °F 5.7 °F 10.4 °F 73% 30.14 in 2.5 mi NNW 10.4 mph - 0.00 in Snow Light Snow
7:47 AM 17.6 °F 4.3 °F 10.4 °F 73% 30.16 in 1.8 mi NNW 12.7 mph - 0.00 in Snow Light Snow
7:55 AM 18.0 °F 3.6 °F 10.9 °F 74% 30.20 in 2.5 mi NNW 15.0 mph - 0.00 in Snow Light Snow
8:09 AM 17.6 °F 5.0 °F 10.4 °F 73% 30.16 in 1.2 mi NNW 11.5 mph - 0.00 in Snow Light Snow
8:21 AM 17.6 °F 4.3 °F 10.4 °F 73% 30.17 in 1.8 mi NNW 12.7 mph 21.9 mph 0.00 in Snow Light Snow
8:29 AM 17.6 °F 3.2 °F 10.4 °F 73% 30.17 in 2.5 mi NNW 15.0 mph 21.9 mph 0.00 in Snow Light Snow
8:55 AM 18.0 °F 5.4 °F 10.9 °F 74% 30.21 in 2.0 mi NNW 11.5 mph - 0.00 in Snow Light Snow
9:24 AM 17.6 °F 2.7 °F 10.4 °F 73% 30.18 in 1.2 mi NNW 16.1 mph 26.5 mph 0.00 in Snow Light Snow
9:37 AM 19.4 °F 5.5 °F 10.4 °F 68% 30.18 in 3.0 mi NW 15.0 mph 24.2 mph 0.00 in Snow Light Snow
9:55 AM 19.4 °F 6.0 °F 10.4 °F 68% 30.18 in 3.0 mi NW 13.8 mph 21.9 mph N/A Snow Light Snow
10:55 AM 19.9 °F 5.7 °F 10.9 °F 68% 30.23 in 8.0 mi NNW 16.1 mph - 0.00 in Snow Light Snow
11:41 AM 19.4 °F 5.5 °F 10.4 °F 68% 30.20 in 7.0 mi NNW 15.0 mph 23.0 mph N/A Snow Light Snow
11:55 AM 19.9 °F 4.3 °F 10.0 °F 65% 30.24 in 7.0 mi NNW 19.6 mph 31.1 mph 0.00 in Snow Light Snow
12:55 PM 21.0 °F 5.4 °F 10.9 °F 65% 30.26 in 5.0 mi North 20.7 mph 24.2 mph 0.00 in Snow Light Snow
1:55 PM 21.9 °F 8.2 °F 12.0 °F 66% 30.25 in 9.0 mi NW 16.1 mph - 0.00 in Snow Light Snow
2:55 PM 21.9 °F 7.8 °F 12.0 °F 66% 30.26 in 9.0 mi NW 17.3 mph - 0.00 in Snow Light Snow
3:55 PM 23.0 °F 10.1 °F 12.9 °F 65% 30.30 in 9.0 mi NW 15.0 mph 23.0 mph 0.00 in Snow Light Snow
4:49 PM 23.0 °F 10.1 °F 14.0 °F 68% 30.28 in 3.0 mi NW 15.0 mph 23.0 mph 0.00 in Snow Light Snow
4:55 PM 23.0 °F 10.1 °F 15.1 °F 72% 30.32 in 3.0 mi NW 15.0 mph 23.0 mph 0.00 in Snow Light Snow
5:00 PM 21.2 °F 6.8 °F 15.8 °F 80% 30.29 in 2.0 mi NNW 17.3 mph 23.0 mph 0.00 in Snow Light Snow
5:08 PM 21.2 °F 7.8 °F 15.8 °F 80% 30.29 in 2.5 mi NNW 15.0 mph 23.0 mph 0.00 in Snow Light Snow
5:27 PM 21.2 °F 8.3 °F 15.8 °F 80% 30.29 in 1.5 mi NW 13.8 mph 21.9 mph 0.00 in Snow Light Snow
5:51 PM 21.2 °F 7.8 °F 15.8 °F 80% 30.29 in 1.5 mi NW 15.0 mph 23.0 mph 0.00 in Snow Light Snow
5:55 PM 21.9 °F 8.7 °F 15.1 °F 75% 30.32 in 1.5 mi NNW 15.0 mph 23.0 mph 0.00 in Snow Light Snow
6:45 PM 21.2 °F 7.8 °F 14.0 °F 74% 30.30 in 6.0 mi NW 15.0 mph - 0.00 in Snow Light Snow
6:55 PM 21.9 °F 8.2 °F 14.0 °F 72% 30.34 in 7.0 mi NNW 16.1 mph - 0.00 in Snow Light Snow
7:55 PM 23.0 °F 8.7 °F 12.9 °F 65% 30.33 in 9.0 mi NNW 18.4 mph 27.6 mph 0.00 in Snow Light Snow
8:55 PM 23.0 °F 10.1 °F 14.0 °F 68% 30.32 in 9.0 mi NNW 15.0 mph - 0.00 in Snow Light Snow
9:16 PM 23.0 °F 12.4 °F 14.0 °F 68% 30.30 in 9.0 mi NNW 10.4 mph - 0.00 in Snow Light Snow
9:55 PM 23.0 °F 12.4 °F 15.8 °F 74% 30.30 in 9.0 mi NNW 10.4 mph - N/A Snow Light Snow
10:55 PM 23.0 °F 11.7 °F 14.0 °F 68% 30.33 in 9.0 mi North 11.5 mph - 0.00 in Snow Light Snow
11:55 PM 21.2 °F 9.5 °F 14.0 °F 74% 30.31 in 10.0 mi North 11.5 mph - N/A   Overcast